Hourly Weather Aalsmeer

Today, 6 December, Sunday

Time Temperature Precipitation Wind Pressure Humidity
00:00 +1°C° 0 mm 2 mps 751 mmHg 88%
01:00 +1°C° 0 mm 2 mps 751 mmHg 88%
02:00 +1°C° 0 mm 2 mps 751 mmHg 88%
03:00 +1°C° 0 mm 2 mps 751 mmHg 89%
04:00 +1°C° 0 mm 2 mps 751 mmHg 89%
05:00 +1°C° 0 mm 2 mps 751 mmHg 90%
06:00 +1°C° 0 mm 2 mps 751 mmHg 90%
07:00 +1°C° 0 mm 2 mps 751 mmHg 89%
08:00 +2°C° 0 mm 2 mps 752 mmHg 87%
09:00 +2°C° 0 mm 2 mps 752 mmHg 86%
10:00 +3°C° 0 mm 2 mps 752 mmHg 83%
11:00 +3°C° 0 mm 2 mps 752 mmHg 80%
12:00 +4°C° 0 mm 2 mps 752 mmHg 77%
13:00 +4°C° 0 mm 2 mps 752 mmHg 80%
14:00 +4°C° 0 mm 2 mps 752 mmHg 83%
15:00 +3°C° 0 mm 2 mps 752 mmHg 86%
16:00 +3°C° 0 mm 2 mps 752 mmHg 87%
17:00 +3°C° 0 mm 2 mps 751 mmHg 89%
18:00 +1°C° 0 mm 3 mps 751 mmHg 91%
19:00 +1°C° 0 mm 3 mps 751 mmHg 90%
20:00 +1°C° 0 mm 3 mps 751 mmHg 90%
21:00 +1°C° 0 mm 3 mps 751 mmHg 89%
22:00 +2°C° 0 mm 3 mps 750 mmHg 88%
23:00 +2°C° 0 mm 3 mps 750 mmHg 87%

Tomorrow, 7 December, Monday

Time Temperature Precipitation Wind Pressure Humidity
00:00 +3°C° 0 mm 3 mps 750 mmHg 86%
01:00 +3°C° 0.2 mm 3 mps 749 mmHg 87%
02:00 +3°C° 0.2 mm 3 mps 748 mmHg 88%
03:00 +4°C° 0.2 mm 4 mps 747 mmHg 88%
04:00 +3°C° 0.6 mm 5 mps 747 mmHg 89%
05:00 +3°C° 0.6 mm 5 mps 746 mmHg 89%
06:00 +4°C° 0.6 mm 6 mps 746 mmHg 89%
07:00 +4°C° 1.2 mm 7 mps 746 mmHg 89%
08:00 +4°C° 1.2 mm 7 mps 745 mmHg 89%
09:00 +4°C° 1.2 mm 7 mps 745 mmHg 89%
10:00 +4°C° 1.9 mm 8 mps 745 mmHg 88%
11:00 +4°C° 1.9 mm 8 mps 745 mmHg 86%
12:00 +4°C° 1.9 mm 8 mps 745 mmHg 85%
13:00 +4°C° 0.4 mm 8 mps 745 mmHg 82%
14:00 +4°C° 0.4 mm 7 mps 746 mmHg 80%
15:00 +4°C° 0.4 mm 6 mps 746 mmHg 78%
16:00 +4°C° 0.2 mm 6 mps 747 mmHg 78%
17:00 +4°C° 0.2 mm 6 mps 747 mmHg 79%
18:00 +5°C° 0.2 mm 5 mps 748 mmHg 80%
19:00 +3°C° 0.1 mm 5 mps 749 mmHg 81%
20:00 +3°C° 0.1 mm 5 mps 749 mmHg 82%
21:00 +3°C° 0.1 mm 5 mps 750 mmHg 83%
22:00 +2°C° 0.1 mm 5 mps 751 mmHg 84%
23:00 +2°C° 0.1 mm 5 mps 751 mmHg 85%

Day after tomorrow, 8 December, Tuesday

Time Temperature Precipitation Wind Pressure Humidity
00:00 +2°C° 0.1 mm 5 mps 752 mmHg 87%
01:00 +1°C° 0 mm 4 mps 752 mmHg 87%
02:00 +1°C° 0 mm 4 mps 752 mmHg 87%
03:00 +1°C° 0 mm 4 mps 752 mmHg 88%
04:00 +2°C° 0 mm 3 mps 752 mmHg 88%
05:00 +1°C° 0 mm 3 mps 753 mmHg 88%
06:00 +1°C° 0 mm 3 mps 753 mmHg 88%
07:00 +2°C° 0 mm 3 mps 754 mmHg 87%
08:00 +2°C° 0 mm 3 mps 754 mmHg 87%
09:00 +2°C° 0 mm 3 mps 754 mmHg 86%
10:00 +2°C° 0 mm 3 mps 754 mmHg 84%
11:00 +3°C° 0 mm 3 mps 755 mmHg 82%
12:00 +3°C° 0 mm 3 mps 755 mmHg 80%
13:00 +3°C° 0 mm 3 mps 755 mmHg 82%
14:00 +4°C° 0 mm 2 mps 755 mmHg 83%
15:00 +3°C° 0 mm 2 mps 755 mmHg 85%
16:00 +3°C° 0 mm 2 mps 756 mmHg 86%
17:00 +2°C° 0 mm 2 mps 756 mmHg 87%
18:00 +2°C° 0 mm 2 mps 757 mmHg 89%
19:00 +1°C° 0 mm 3 mps 757 mmHg 89%
20:00 0°C° 0 mm 3 mps 757 mmHg 90%
21:00 0°C° 0 mm 3 mps 757 mmHg 90%
22:00 0°C° 0 mm 3 mps 758 mmHg 91%
23:00 0°C° 0 mm 3 mps 758 mmHg 91%

9 December, Wednesday

Time Temperature Precipitation Wind Pressure Humidity
00:00 0°C° 0 mm 3 mps 758 mmHg 91%
01:00 0°C° 0 mm 3 mps 758 mmHg 91%
02:00 0°C° 0 mm 3 mps 759 mmHg 92%
03:00 0°C° 0 mm 3 mps 759 mmHg 92%
04:00 0°C° 0 mm 3 mps 759 mmHg 92%
05:00 0°C° 0 mm 3 mps 759 mmHg 92%
06:00 0°C° 0 mm 3 mps 759 mmHg 92%
07:00 0°C° 0 mm 3 mps 759 mmHg 91%
08:00 0°C° 0 mm 3 mps 759 mmHg 90%
09:00 0°C° 0 mm 3 mps 760 mmHg 89%
10:00 +1°C° 0 mm 3 mps 759 mmHg 86%
11:00 +2°C° 0 mm 3 mps 759 mmHg 83%
12:00 +3°C° 0 mm 3 mps 759 mmHg 79%
13:00 +2°C° 0 mm 3 mps 759 mmHg 82%
14:00 +2°C° 0 mm 3 mps 759 mmHg 84%
15:00 +3°C° 0 mm 2 mps 759 mmHg 87%
16:00 +2°C° 0 mm 2 mps 759 mmHg 88%
17:00 +2°C° 0 mm 2 mps 759 mmHg 89%
18:00 +1°C° 0 mm 2 mps 759 mmHg 89%
19:00 0°C° 0 mm 3 mps 759 mmHg 89%
20:00 0°C° 0 mm 3 mps 759 mmHg 90%
21:00 0°C° 0 mm 3 mps 759 mmHg 90%
22:00 0°C° 0 mm 3 mps 759 mmHg 90%
23:00 -1°C° 0 mm 3 mps 759 mmHg 90%

10 December, Thursday

Time Temperature Precipitation Wind Pressure Humidity
00:00 -1°C° 0 mm 3 mps 759 mmHg 91%
01:00 -1°C° 0 mm 3 mps 759 mmHg 91%
02:00 -1°C° 0 mm 3 mps 759 mmHg 91%
03:00 -1°C° 0 mm 3 mps 759 mmHg 92%
04:00 -1°C° 0 mm 3 mps 759 mmHg 91%
05:00 -1°C° 0 mm 3 mps 759 mmHg 91%
06:00 -1°C° 0 mm 3 mps 759 mmHg 91%
07:00 -1°C° 0 mm 3 mps 759 mmHg 90%
08:00 -1°C° 0 mm 3 mps 759 mmHg 88%
09:00 0°C° 0 mm 3 mps 760 mmHg 87%
10:00 0°C° 0 mm 3 mps 759 mmHg 83%
11:00 +1°C° 0 mm 3 mps 759 mmHg 80%
12:00 +2°C° 0 mm 3 mps 759 mmHg 77%
13:00 +2°C° 0 mm 3 mps 759 mmHg 78%
14:00 +2°C° 0 mm 3 mps 759 mmHg 78%
15:00 +1°C° 0 mm 3 mps 759 mmHg 79%
16:00 0°C° 0 mm 4 mps 759 mmHg 80%
17:00 0°C° 0 mm 4 mps 759 mmHg 80%
18:00 -1°C° 0 mm 4 mps 759 mmHg 81%
19:00 -1°C° 0 mm 4 mps 758 mmHg 82%
20:00 -1°C° 0 mm 5 mps 758 mmHg 82%
21:00 -1°C° 0 mm 5 mps 758 mmHg 83%
22:00 -1°C° 0 mm 5 mps 758 mmHg 83%
23:00 -1°C° 0 mm 5 mps 757 mmHg 83%

11 December, Friday

Time Temperature Precipitation Wind Pressure Humidity
00:00 -1°C° 0 mm 5 mps 757 mmHg 82%
01:00 -1°C° 0 mm 5 mps 757 mmHg 82%
02:00 -1°C° 0 mm 5 mps 756 mmHg 81%
03:00 -2°C° 0 mm 6 mps 756 mmHg 80%
04:00 -2°C° 0 mm 6 mps 755 mmHg 79%
05:00 -2°C° 0 mm 6 mps 754 mmHg 78%
06:00 -1°C° 0 mm 7 mps 754 mmHg 76%
07:00 -1°C° 0 mm 7 mps 753 mmHg 74%
08:00 -1°C° 0 mm 8 mps 752 mmHg 71%
09:00 0°C° 0 mm 8 mps 752 mmHg 69%
10:00 0°C° 0.4 mm 8 mps 751 mmHg 70%
11:00 0°C° 0.4 mm 8 mps 750 mmHg 71%
12:00 0°C° 0.4 mm 9 mps 749 mmHg 72%
13:00 0°C° 2.2 mm 8 mps 748 mmHg 79%
14:00 0°C° 2.2 mm 8 mps 748 mmHg 85%
15:00 0°C° 2.2 mm 7 mps 747 mmHg 92%
16:00 +2°C° 0.3 mm 7 mps 747 mmHg 93%
17:00 +3°C° 0.3 mm 6 mps 747 mmHg 94%
18:00 +3°C° 0.3 mm 5 mps 747 mmHg 95%
19:00 +3°C° 0.2 mm 5 mps 747 mmHg 93%
20:00 +5°C° 0.2 mm 4 mps 748 mmHg 92%
21:00 +5°C° 0.2 mm 4 mps 748 mmHg 90%
22:00 +4°C° 0.1 mm 4 mps 749 mmHg 92%
23:00 +4°C° 0.1 mm 4 mps 749 mmHg 93%
Show more

We Need Your Consent

Meteoprog and our Service Providers may store and access personal data such as cookies, device identifiers or other similar technologies on your device and process such data to personalise content and ads, as well as provide social media features and to analyse the traffic.

  • Store and/or access information on your device

    Cookies, device identifiers or other information can be stored or accessed on your device for the purposes indicated above.

  • Personalised ads and content, ad and content measurement, audience insights, and products development

    Ads and content can be personalised based on a profile. More data can be added to better personalise ads and content. Ad and content performance can be measured. Insights about the audience who saw the ads and content can be derived. Such data can be used to develop or improve user’s experience, systems and software.

By clicking ‘I Agree’ you will allow the use of indicated cookies, device identifiers, web beacons or other similar technologies. Your settings can be changed in the browser on your device.

For certain purposes, legitimate interests may be relied on, rather than consent. You can read more about this in our Privacy and Cookie Policy.